When you browse on this site, cookies collect data to enhance your experience and personalize the content and advertising you see.
Visit our Privacy Policy to learn more. By continuing to use the site, you agree to this use of cookies and data.
  • In Germany
  • List of Countries
  • For 7 days
  • Water Temperature
  • Weather Map
  • Weather Widgets
  • user-avatar
    Login

    Hourly Weather Shardzha

    Today, 29 March, Sunday

    Time Temperature Precipitation Wind Pressure Humidity
    00:00 +30°C° 0 mm 7 mps 757 mmHg 41%
    01:00 +30°C° 0 mm 6 mps 757 mmHg 40%
    02:00 +29°C° 0 mm 5 mps 757 mmHg 40%
    03:00 +28°C° 0 mm 4 mps 756 mmHg 40%
    04:00 +28°C° 0 mm 4 mps 756 mmHg 39%
    05:00 +28°C° 0 mm 5 mps 756 mmHg 40%
    06:00 +28°C° 0 mm 7 mps 756 mmHg 40%
    07:00 +28°C° 0 mm 8 mps 757 mmHg 41%
    08:00 +29°C° 0 mm 7 mps 757 mmHg 37%
    09:00 +30°C° 0 mm 7 mps 757 mmHg 32%
    10:00 +32°C° 0 mm 6 mps 758 mmHg 28%
    11:00 +33°C° 0 mm 7 mps 757 mmHg 26%
    12:00 +34°C° 0 mm 8 mps 757 mmHg 23%
    13:00 +35°C° 0 mm 9 mps 756 mmHg 20%
    14:00 +37°C° 0 mm 8 mps 755 mmHg 20%
    15:00 +36°C° 0 mm 7 mps 755 mmHg 20%
    16:00 +38°C° 0 mm 7 mps 754 mmHg 19%
    17:00 +36°C° 0 mm 7 mps 754 mmHg 22%
    18:00 +35°C° 0 mm 6 mps 754 mmHg 24%
    19:00 +35°C° 0 mm 6 mps 754 mmHg 27%
    20:00 +33°C° 0 mm 6 mps 754 mmHg 31%
    21:00 +32°C° 0 mm 6 mps 754 mmHg 36%
    22:00 +30°C° 0 mm 7 mps 753 mmHg 41%
    23:00 +30°C° 0.1 mm 7 mps 753 mmHg 41%

    Tomorrow, 30 March, Monday

    Time Temperature Precipitation Wind Pressure Humidity
    00:00 +30°C° 0.1 mm 7 mps 753 mmHg 41%
    01:00 +29°C° 0.1 mm 7 mps 753 mmHg 41%
    02:00 +29°C° 0.1 mm 8 mps 753 mmHg 41%
    03:00 +29°C° 0.1 mm 9 mps 753 mmHg 41%
    04:00 +28°C° 0.1 mm 10 mps 753 mmHg 42%
    05:00 +28°C° 0 mm 10 mps 753 mmHg 47%
    06:00 +28°C° 0 mm 9 mps 754 mmHg 53%
    07:00 +27°C° 0 mm 9 mps 755 mmHg 58%
    08:00 +28°C° 0 mm 10 mps 755 mmHg 57%
    09:00 +29°C° 0 mm 10 mps 756 mmHg 57%
    10:00 +31°C° 0 mm 11 mps 756 mmHg 56%
    11:00 +31°C° 0 mm 10 mps 756 mmHg 57%
    12:00 +29°C° 0 mm 9 mps 756 mmHg 57%
    13:00 +29°C° 0 mm 9 mps 756 mmHg 58%
    14:00 +29°C° 0 mm 8 mps 756 mmHg 58%
    15:00 +28°C° 0 mm 7 mps 756 mmHg 58%
    16:00 +28°C° 0 mm 7 mps 755 mmHg 58%
    17:00 +27°C° 0 mm 6 mps 756 mmHg 57%
    18:00 +26°C° 0 mm 6 mps 756 mmHg 57%
    19:00 +26°C° 0 mm 5 mps 756 mmHg 56%
    20:00 +25°C° 0 mm 5 mps 757 mmHg 58%
    21:00 +25°C° 0 mm 5 mps 757 mmHg 60%
    22:00 +23°C° 0 mm 5 mps 758 mmHg 61%
    23:00 +23°C° 0 mm 5 mps 758 mmHg 63%

    Day after tomorrow, 31 March, Tuesday

    Time Temperature Precipitation Wind Pressure Humidity
    00:00 +23°C° 0 mm 5 mps 758 mmHg 64%
    01:00 +23°C° 0 mm 5 mps 758 mmHg 65%
    02:00 +22°C° 0 mm 5 mps 758 mmHg 65%
    03:00 +22°C° 0 mm 4 mps 757 mmHg 64%
    04:00 +22°C° 0 mm 4 mps 757 mmHg 63%
    05:00 +22°C° 0 mm 4 mps 758 mmHg 62%
    06:00 +22°C° 0 mm 4 mps 758 mmHg 60%
    07:00 +22°C° 0 mm 4 mps 759 mmHg 58%
    08:00 +25°C° 0 mm 5 mps 759 mmHg 49%
    09:00 +26°C° 0 mm 6 mps 759 mmHg 41%
    10:00 +28°C° 0 mm 7 mps 759 mmHg 33%
    11:00 +29°C° 0 mm 7 mps 759 mmHg 32%
    12:00 +29°C° 0 mm 7 mps 759 mmHg 31%
    13:00 +29°C° 0 mm 7 mps 759 mmHg 30%
    14:00 +29°C° 0 mm 7 mps 758 mmHg 33%
    15:00 +28°C° 0 mm 8 mps 758 mmHg 35%
    16:00 +28°C° 0 mm 8 mps 757 mmHg 38%
    17:00 +27°C° 0 mm 7 mps 758 mmHg 43%
    18:00 +26°C° 0 mm 7 mps 758 mmHg 47%
    19:00 +24°C° 0 mm 6 mps 758 mmHg 52%
    20:00 +24°C° 0 mm 6 mps 759 mmHg 54%
    21:00 +25°C° 0 mm 5 mps 759 mmHg 56%
    22:00 +25°C° 0 mm 5 mps 759 mmHg 58%
    23:00 +23°C° 0 mm 5 mps 759 mmHg 60%

    1 April, Wednesday

    Time Temperature Precipitation Wind Pressure Humidity
    00:00 +23°C° 0 mm 4 mps 759 mmHg 62%
    01:00 +23°C° 0 mm 4 mps 758 mmHg 65%
    02:00 +23°C° 0 mm 4 mps 758 mmHg 66%
    03:00 +22°C° 0 mm 4 mps 758 mmHg 67%
    04:00 +22°C° 0 mm 3 mps 758 mmHg 69%
    05:00 +22°C° 0 mm 3 mps 758 mmHg 69%
    06:00 +22°C° 0 mm 3 mps 758 mmHg 69%
    07:00 +22°C° 0 mm 3 mps 759 mmHg 70%
    08:00 +24°C° 0 mm 3 mps 759 mmHg 62%
    09:00 +25°C° 0 mm 3 mps 759 mmHg 55%
    10:00 +27°C° 0 mm 3 mps 760 mmHg 48%
    11:00 +28°C° 0 mm 3 mps 759 mmHg 41%
    12:00 +29°C° 0 mm 3 mps 759 mmHg 35%
    13:00 +31°C° 0 mm 3 mps 759 mmHg 29%
    14:00 +30°C° 0 mm 4 mps 759 mmHg 33%
    15:00 +30°C° 0 mm 4 mps 758 mmHg 37%
    16:00 +29°C° 0 mm 4 mps 758 mmHg 40%
    17:00 +28°C° 0 mm 3 mps 758 mmHg 43%
    18:00 +28°C° 0 mm 3 mps 758 mmHg 46%
    19:00 +27°C° 0 mm 2 mps 758 mmHg 49%
    20:00 +27°C° 0 mm 2 mps 758 mmHg 49%
    21:00 +27°C° 0 mm 2 mps 758 mmHg 50%
    22:00 +27°C° 0 mm 1 mps 758 mmHg 50%
    23:00 +26°C° 0 mm 1 mps 758 mmHg 52%

    2 April, Thursday

    Time Temperature Precipitation Wind Pressure Humidity
    00:00 +26°C° 0 mm 1 mps 758 mmHg 53%
    01:00 +26°C° 0 mm 1 mps 757 mmHg 54%
    02:00 +25°C° 0 mm 1 mps 757 mmHg 54%
    03:00 +25°C° 0 mm 2 mps 757 mmHg 54%
    04:00 +25°C° 0 mm 2 mps 757 mmHg 54%
    05:00 +25°C° 0 mm 2 mps 757 mmHg 53%
    06:00 +25°C° 0 mm 2 mps 757 mmHg 52%
    07:00 +25°C° 0 mm 2 mps 757 mmHg 50%
    08:00 +27°C° 0 mm 2 mps 758 mmHg 41%
    09:00 +29°C° 0 mm 3 mps 758 mmHg 31%
    10:00 +33°C° 0 mm 3 mps 758 mmHg 21%
    11:00 +34°C° 0 mm 3 mps 758 mmHg 18%
    12:00 +36°C° 0 mm 3 mps 757 mmHg 15%
    13:00 +37°C° 0 mm 2 mps 757 mmHg 11%
    14:00 +36°C° 0 mm 3 mps 756 mmHg 14%
    15:00 +36°C° 0 mm 4 mps 756 mmHg 17%
    16:00 +35°C° 0 mm 5 mps 755 mmHg 20%
    17:00 +34°C° 0 mm 5 mps 755 mmHg 22%
    18:00 +33°C° 0 mm 4 mps 755 mmHg 25%
    19:00 +32°C° 0 mm 4 mps 755 mmHg 27%
    20:00 +31°C° 0 mm 3 mps 756 mmHg 29%
    21:00 +30°C° 0 mm 3 mps 756 mmHg 30%
    22:00 +30°C° 0 mm 2 mps 756 mmHg 31%
    23:00 +30°C° 0 mm 2 mps 756 mmHg 30%

    3 April, Friday

    Time Temperature Precipitation Wind Pressure Humidity
    00:00 +29°C° 0 mm 2 mps 756 mmHg 30%
    01:00 +29°C° 0 mm 2 mps 755 mmHg 30%
    02:00 +29°C° 0 mm 2 mps 755 mmHg 29%
    03:00 +28°C° 0 mm 2 mps 755 mmHg 28%
    04:00 +28°C° 0 mm 3 mps 755 mmHg 27%
    05:00 +28°C° 0 mm 3 mps 755 mmHg 26%
    06:00 +29°C° 0 mm 3 mps 755 mmHg 24%
    07:00 +29°C° 0 mm 4 mps 756 mmHg 23%
    08:00 +31°C° 0 mm 3 mps 756 mmHg 21%
    09:00 +35°C° 0 mm 2 mps 756 mmHg 18%
    10:00 +37°C° 0 mm 2 mps 757 mmHg 16%
    11:00 +38°C° 0 mm 2 mps 756 mmHg 15%
    12:00 +39°C° 0 mm 3 mps 756 mmHg 13%
    13:00 +41°C° 0 mm 4 mps 756 mmHg 12%
    14:00 +40°C° 0 mm 4 mps 756 mmHg 14%
    15:00 +39°C° 0 mm 5 mps 755 mmHg 16%
    16:00 +37°C° 0 mm 5 mps 755 mmHg 18%
    17:00 +35°C° 0 mm 5 mps 755 mmHg 22%
    18:00 +34°C° 0 mm 5 mps 755 mmHg 26%
    19:00 +32°C° 0 mm 4 mps 755 mmHg 30%
    20:00 +30°C° 0 mm 4 mps 755 mmHg 33%
    21:00 +30°C° 0 mm 4 mps 756 mmHg 36%
    22:00 +29°C° 0 mm 3 mps 756 mmHg 39%
    23:00 +29°C° 0 mm 3 mps 756 mmHg 41%
    Show more